Location: Koslow
(50.3020°N, 18.5663°E)
Time: 01:50:45
(UTC+00:00)

Cosmos 2341 Rocket - Pass Details

Date: 07 June 2020
Orbit: 968 x 1005 km, 82.9° (Epoch: 15 July)

Event Time Altitude Azimuth Distance (km) Brightness Sun altitude
Exits shadow 01:07:41 - 178° (S) 3,094 6.1 -10.4°
Reaches altitude 10° 01:08:34 10° 178° (S) 2,764 5.9 -10.3°
Maximum altitude 01:14:53 72° 95° (E) 1,048 4.3 -9.7°
Drops below altitude 10° 01:21:11 10° 13° (NNE) 2,759 7.6 -9.1°
Sets 01:23:42 0° 12° (NNE) 3,706 8.4 -8.9°
